KE7YUP Weather Reports


Display with metric or nautical units.
time (UTC)temp
F
wind
direction
speed
MPH
gust
MPH
rain 1hr
in
rain 24hr
in
rain mn
in
humidity
%
barometer
mb
20260508064815 62 328 6.0 9.0 0.00 0.00 0.00 36 1018.6
20260508063815 61 317 9.0 10.0 0.00 0.00 0.00 37 1018.6
20260508062816 62 320 7.0 9.0 0.00 0.00 0.00 35 1018.2
20260508061815 64 320 10.0 11.0 0.00 0.00 0.00 34 1018.5
20260508060815 63 319 5.0 7.0 0.00 0.00 0.00 34 1018.4
20260508055816 63 321 4.0 5.0 0.00 0.00 0.00 34 1018.0
20260508054817 64 321 2.0 3.0 0.00 0.00 0.00 34 1018.1
20260508053817 64 327 6.0 8.0 0.00 0.00 0.00 33 1018.1
20260508052816 64 319 8.0 9.0 0.00 0.00 0.00 33 1017.7
20260508051817 64 309 7.0 9.0 0.00 0.00 0.00 34 1017.8
20260508050816 64 313 1.0 3.0 0.00 0.00 0.00 34 1017.9
20260508045837 62 355 4.0 5.0 0.00 0.00 0.00 36 1017.1
20260508044817 63 327 2.0 3.0 0.00 0.00 0.00 34 1017.4
20260508043816 61 339 4.0 5.0 0.00 0.00 0.00 37 1017.1
20260508042816 63 344 4.0 5.0 0.00 0.00 0.00 35 1016.9
20260508041816 65 333 1.0 3.0 0.00 0.00 0.00 33 1017.3
20260508040816 64 322 5.0 9.0 0.00 0.00 0.00 33 1017.4
20260508035817 64 328 4.0 8.0 0.00 0.00 0.00 33 1017.0
20260508034837 64 310 6.0 9.0 0.00 0.00 0.00 33 1016.9
20260508033817 64 317 4.0 6.0 0.00 0.00 0.00 34 1016.9
20260508032816 63 320 6.0 9.0 0.00 0.00 0.00 35 1016.8
20260508031837 64 337 4.0 5.0 0.00 0.00 0.00 34 1016.8
20260508030817 66 343 6.0 9.0 0.00 0.00 0.00 32 1017.1
20260508025816 66 355 5.0 6.0 0.00 0.00 0.00 31 1016.7
20260508024816 66 358 5.0 5.0 0.00 0.00 0.00 31 1016.5
20260508023817 67 10 4.0 6.0 0.00 0.00 0.00 30 1016.5
20260508022837 67 37 2.0 5.0 0.00 0.00 0.00 31 1016.5
20260508021816 67 35 4.0 8.0 0.00 0.00 0.00 30 1016.4
20260508020837 68 67 2.0 4.0 0.00 0.00 0.00 30 1016.4
20260508015816 69 40 5.0 5.0 0.00 0.00 0.00 29 1016.4
20260508014816 69 66 3.0 5.0 0.00 0.00 0.00 29 1016.4
20260508013816 70 69 2.0 4.0 0.00 0.00 0.00 28 1016.8
20260508012816 71 69 4.0 5.0 0.00 0.00 0.00 27 1016.4
20260508011816 71 64 3.0 4.0 0.00 0.00 0.00 28 1016.5
20260508010816 71 101 3.0 6.0 0.00 0.00 0.00 28 1016.8
20260508005836 71 72 4.0 6.0 0.00 0.00 0.00 28 1017.0
20260508004816 71 101 3.0 8.0 0.00 0.00 0.00 27 1017.0
20260508003816 71 68 5.0 6.0 0.00 0.00 0.00 27 1017.1
20260508002816 72 84 4.0 7.0 0.00 0.00 0.00 26 1017.1
20260508001816 72 18 3.0 7.0 0.00 0.00 0.00 25 1017.3
20260508000816 71 15 2.0 9.0 0.00 0.00 0.00 27 1017.5
20260507235816 71 41 8.0 12.0 0.00 0.00 0.00 27 1017.6
20260507234816 72 353 6.0 11.0 0.00 0.00 0.00 27 1017.7
20260507233816 71 69 6.0 9.0 0.00 0.00 0.00 26 1017.7
20260507232816 71 39 7.0 12.0 0.00 0.00 0.00 26 1017.7
20260507231816 72 32 6.0 9.0 0.00 0.00 0.00 25 1018.1
20260507230816 72 43 6.0 10.0 0.00 0.00 0.00 25 1018.2
20260507225816 73 38 10.0 14.0 0.00 0.00 0.00 25 1018.3
20260507224816 73 60 5.0 10.0 0.00 0.00 0.00 25 1018.3
20260507223836 73 152 5.0 10.0 0.00 0.00 0.00 24 1018.2
20260507222816 73 158 5.0 9.0 0.00 0.00 0.00 25 1018.5
20260507221816 72 149 8.0 9.0 0.00 0.00 0.00 25 1018.9
20260507220816 72 152 4.0 7.0 0.00 0.00 0.00 25 1019.3
20260507215816 71 86 5.0 10.0 0.00 0.00 0.00 26 1019.1
20260507214816 71 154 7.0 10.0 0.00 0.00 0.00 25 1019.1
20260507213816 71 137 5.0 9.0 0.00 0.00 0.00 25 1019.3
20260507212816 70 73 5.0 8.0 0.00 0.00 0.00 27 1019.5
20260507211816 70 66 6.0 10.0 0.00 0.00 0.00 27 1019.7
20260507210816 69 88 9.0 12.0 0.00 0.00 0.00 26 1019.8
20260507205836 69 44 4.0 8.0 0.00 0.00 0.00 26 1020.0
20260507204816 69 80 7.0 10.0 0.00 0.00 0.00 26 1020.2
20260507203815 69 124 6.0 10.0 0.00 0.00 0.00 26 1020.3
20260507202816 68 97 9.0 12.0 0.00 0.00 0.00 27 1020.2
20260507201836 68 141 8.0 11.0 0.00 0.00 0.00 27 1020.2
20260507200816 67 105 7.0 9.0 0.00 0.00 0.00 27 1020.5
20260507195816 68 90 6.0 10.0 0.00 0.00 0.00 27 1020.5
20260507194815 68 118 5.0 9.0 0.00 0.00 0.00 27 1020.6
20260507193815 67 106 7.0 9.0 0.00 0.00 0.00 27 1020.7
20260507192816 67 121 5.0 10.0 0.00 0.00 0.00 26 1021.0
20260507191815 66 84 8.0 12.0 0.00 0.00 0.00 27 1020.8
20260507190816 66 106 8.0 11.0 0.00 0.00 0.00 27 1021.0
20260507185816 66 67 6.0 11.0 0.00 0.00 0.00 28 1021.6
20260507184815 66 107 5.0 8.0 0.00 0.00 0.00 27 1021.7
20260507183815 65 75 6.0 9.0 0.00 0.00 0.00 27 1021.9
20260507182815 64 102 5.0 8.0 0.00 0.00 0.00 28 1021.9
20260507181816 64 88 7.0 11.0 0.00 0.00 0.00 28 1022.1
20260507180815 63 106 3.0 8.0 0.00 0.00 0.00 29 1022.2
20260507175856 62 119 4.0 8.0 0.00 0.00 0.00 29 1022.1
20260507174835 62 115 4.0 11.0 0.00 0.00 0.00 29 1022.3
20260507173815 61 131 6.0 10.0 0.00 0.00 0.00 30 1022.3
20260507172815 61 119 6.0 10.0 0.00 0.00 0.00 28 1021.5
20260507171835 60 69 6.0 8.0 0.00 0.00 0.00 32 1021.6
20260507170815 59 86 7.0 10.0 0.00 0.00 0.00 35 1021.6
20260507165815 58 106 5.0 9.0 0.00 0.00 0.00 36 1022.5
20260507164835 57 117 2.0 7.0 0.00 0.00 0.00 41 1022.6
20260507163815 57 108 3.0 4.0 0.00 0.00 0.00 44 1022.8
20260507162815 56 132 2.0 6.0 0.00 0.00 0.00 46 1022.8
20260507161815 56 127 4.0 8.0 0.00 0.00 0.00 45 1022.8
20260507160815 54 139 2.0 6.0 0.00 0.00 0.00 47 1022.6
20260507155815 54 88 1.0 2.0 0.00 0.00 0.00 47 1022.3
20260507154815 53 60 3.0 5.0 0.00 0.00 0.00 49 1022.3
20260507153815 53 113 2.0 3.0 0.00 0.00 0.00 50 1022.5
20260507152815 53 74 3.0 5.0 0.00 0.00 0.00 50 1022.9
20260507151815 53 106 4.0 7.0 0.00 0.00 0.00 51 1022.9
20260507150815 53 76 1.0 4.0 0.00 0.00 0.00 50 1022.9
20260507145837 52 119 2.0 4.0 0.00 0.00 0.00 55 1022.6
20260507144817 50 92 1.0 3.0 0.00 0.00 0.00 57 1022.2
20260507143837 50 85 3.0 4.0 0.00 0.00 0.00 59 1022.3
20260507142817 50 83 2.0 5.0 0.00 0.00 0.00 59 1022.6
20260507141817 50 83 1.0 2.0 0.00 0.00 0.00 60 1022.6
20260507140817 49 83 1.0 3.0 0.00 0.00 0.00 61 1022.6
20260507135837 49 80 2.0 3.0 0.00 0.00 0.00 63 1023.0
20260507134817 49 70 1.0 2.0 0.00 0.00 0.00 64 1022.9
20260507133817 48 85 3.0 4.0 0.00 0.00 0.00 67 1023.0
20260507132817 48 82 2.0 3.0 0.00 0.00 0.00 68 1022.8
20260507131817 46 0.0 0.0 0.00 0.00 0.00 68 1022.4
20260507130817 46 72 0.0 1.0 0.00 0.00 0.00 66 1022.4
20260507125817 46 73 2.0 3.0 0.00 0.00 0.00 65 1022.4
20260507124837 45 71 3.0 5.0 0.00 0.00 0.00 63 1022.0
20260507123817 45 50 3.0 4.0 0.00 0.00 0.00 58 1021.8
20260507122816 46 50 3.0 4.0 0.00 0.00 0.00 60 1022.0
20260507121837 46 49 3.0 4.0 0.00 0.00 0.00 59 1022.0
20260507120816 45 11 1.0 2.0 0.00 0.00 0.00 55 1021.6
20260507115817 46 11 2.0 3.0 0.00 0.00 0.00 54 1021.9
20260507114817 46 11 2.0 3.0 0.00 0.00 0.00 56 1022.0
20260507113816 45 11 2.0 3.0 0.00 0.00 0.00 59 1021.8
20260507112817 45 11 3.0 4.0 0.00 0.00 0.00 62 1021.8
20260507111816 46 11 4.0 5.0 0.00 0.00 0.00 61 1022.0
20260507110836 46 11 3.0 3.0 0.00 0.00 0.00 62 1022.1
20260507105816 46 11 4.0 5.0 0.00 0.00 0.00 61 1021.8
20260507104816 45 11 4.0 5.0 0.00 0.00 0.00 63 1022.0
20260507103836 45 11 5.0 5.0 0.00 0.00 0.00 65 1022.1
20260507102816 45 11 2.0 3.0 0.00 0.00 0.00 65 1021.9
20260507101857 45 11 1.0 2.0 0.00 0.00 0.00 66 1021.9
20260507100816 45 11 1.0 2.0 0.00 0.00 0.00 65 1022.1
20260507095816 46 11 2.0 3.0 0.00 0.00 0.00 67 1022.1
20260507094816 45 356 3.0 4.0 0.00 0.00 0.00 67 1022.2
20260507093816 45 329 2.0 3.0 0.00 0.00 0.00 65 1022.4
20260507092816 47 329 4.0 5.0 0.00 0.00 0.00 61 1022.9
20260507091837 48 111 1.0 2.0 0.00 0.00 0.00 60 1022.9
20260507090816 47 53 2.0 4.0 0.00 0.02 0.00 61 1022.9
20260507085816 47 350 1.0 2.0 0.00 0.06 0.00 60 1022.6
20260507084816 47 350 1.0 2.0 0.00 0.08 0.00 59 1022.8
20260507083816 47 350 1.0 3.0 0.00 0.08 0.00 57 1022.7
20260507082836 47 350 4.0 5.0 0.00 0.08 0.00 52 1022.6
20260507081816 47 350 4.0 5.0 0.00 0.08 0.00 53 1022.8
20260507080816 47 350 4.0 5.0 0.00 0.08 0.00 50 1022.7
20260507075836 46 350 5.0 6.0 0.00 0.08 0.00 51 1022.4
20260507074816 46 350 2.0 3.0 0.00 0.08 0.00 48 1022.4
20260507073816 46 350 3.0 4.0 0.00 0.08 0.00 48 1022.5
20260507072816 47 350 3.0 3.0 0.00 0.08 0.00 46 1022.6
20260507071836 47 350 2.0 2.0 0.00 0.08 0.00 47 1022.6
20260507070816 47 350 1.0 3.0 0.00 0.08 0.00 47 1022.6
20260507065816 47 350 1.0 2.0 0.00 0.08 0.00 46 1022.2